When you browse on this site, cookies collect data to enhance your experience and personalize the content and advertising you see.
Visit our Privacy Policy to learn more. By continuing to use the site, you agree to this use of cookies and data.

Stündliche Wetter Caucasia

Heute, 13 Juli, Montag

Zeit Temperatur Niederschläge Wind Luftdruck Luftfeuchtigkeit
00:00 +26°C° 3.9 mm 1 m/S 754 mmHg 95%
01:00 +25°C° 3.9 mm 1 m/S 754 mmHg 98%
02:00 +25°C° 2.1 mm 1 m/S 754 mmHg 98%
03:00 +25°C° 2.1 mm 1 m/S 753 mmHg 99%
04:00 +25°C° 2.1 mm 1 m/S 753 mmHg 99%
05:00 +25°C° 0.2 mm 1 m/S 754 mmHg 99%
06:00 +25°C° 0.2 mm 1 m/S 754 mmHg 98%
07:00 +25°C° 0.2 mm 1 m/S 754 mmHg 98%
08:00 +27°C° 0 mm 1 m/S 754 mmHg 91%
09:00 +28°C° 0 mm 1 m/S 754 mmHg 85%
10:00 +28°C° 0 mm 0 m/S 754 mmHg 78%
11:00 +31°C° 0 mm 1 m/S 754 mmHg 74%
12:00 +32°C° 0 mm 1 m/S 753 mmHg 69%
13:00 +34°C° 0 mm 2 m/S 752 mmHg 64%
14:00 +34°C° 0 mm 2 m/S 752 mmHg 66%
15:00 +32°C° 0 mm 2 m/S 751 mmHg 68%
16:00 +32°C° 0 mm 2 m/S 751 mmHg 71%
17:00 +31°C° 0.1 mm 2 m/S 751 mmHg 76%
18:00 +29°C° 0.1 mm 2 m/S 752 mmHg 81%
19:00 +28°C° 0.1 mm 1 m/S 752 mmHg 86%
20:00 +28°C° 1.5 mm 1 m/S 753 mmHg 89%
21:00 +27°C° 1.5 mm 1 m/S 753 mmHg 92%
22:00 +26°C° 1.5 mm 1 m/S 754 mmHg 95%
23:00 +26°C° 1.2 mm 1 m/S 754 mmHg 96%

Morgen, 14 Juli, Dienstag

Zeit Temperatur Niederschläge Wind Luftdruck Luftfeuchtigkeit
00:00 +26°C° 1.2 mm 1 m/S 753 mmHg 96%
01:00 +26°C° 1.2 mm 1 m/S 753 mmHg 96%
02:00 +25°C° 2.3 mm 1 m/S 753 mmHg 97%
03:00 +25°C° 2.3 mm 2 m/S 753 mmHg 97%
04:00 +25°C° 2.3 mm 2 m/S 753 mmHg 98%
05:00 +25°C° 3.3 mm 2 m/S 753 mmHg 98%
06:00 +25°C° 3.3 mm 1 m/S 754 mmHg 98%
07:00 +25°C° 3.3 mm 1 m/S 754 mmHg 98%
08:00 +25°C° 0.5 mm 1 m/S 755 mmHg 97%
09:00 +25°C° 0.5 mm 1 m/S 755 mmHg 96%
10:00 +26°C° 0.5 mm 2 m/S 755 mmHg 95%
11:00 +27°C° 0 mm 1 m/S 754 mmHg 86%
12:00 +29°C° 0 mm 1 m/S 753 mmHg 76%
13:00 +31°C° 0 mm 1 m/S 752 mmHg 67%
14:00 +31°C° 0 mm 1 m/S 752 mmHg 66%
15:00 +32°C° 0 mm 1 m/S 751 mmHg 65%
16:00 +32°C° 0 mm 1 m/S 751 mmHg 64%
17:00 +31°C° 0 mm 1 m/S 751 mmHg 71%
18:00 +29°C° 0 mm 1 m/S 752 mmHg 78%
19:00 +27°C° 0 mm 1 m/S 752 mmHg 85%
20:00 +27°C° 0.2 mm 1 m/S 753 mmHg 87%
21:00 +27°C° 0.2 mm 1 m/S 753 mmHg 89%
22:00 +26°C° 0.2 mm 1 m/S 754 mmHg 91%
23:00 +26°C° 0.9 mm 1 m/S 754 mmHg 93%

übermorgen, 15 Juli, Mittwoch

Zeit Temperatur Niederschläge Wind Luftdruck Luftfeuchtigkeit
00:00 +26°C° 0.9 mm 1 m/S 753 mmHg 95%
01:00 +26°C° 0.9 mm 1 m/S 753 mmHg 96%
02:00 +25°C° 0 mm 1 m/S 753 mmHg 97%
03:00 +25°C° 0 mm 1 m/S 753 mmHg 97%
04:00 +25°C° 0 mm 1 m/S 752 mmHg 97%
05:00 +25°C° 0 mm 1 m/S 753 mmHg 97%
06:00 +25°C° 0 mm 1 m/S 753 mmHg 97%
07:00 +26°C° 0 mm 1 m/S 753 mmHg 97%
08:00 +28°C° 0 mm 1 m/S 754 mmHg 88%
09:00 +28°C° 0 mm 0 m/S 754 mmHg 80%
10:00 +29°C° 0 mm 0 m/S 754 mmHg 72%
11:00 +32°C° 0 mm 1 m/S 753 mmHg 69%
12:00 +33°C° 0 mm 1 m/S 752 mmHg 66%
13:00 +35°C° 0 mm 2 m/S 751 mmHg 62%
14:00 +34°C° 0.3 mm 2 m/S 751 mmHg 66%
15:00 +34°C° 0.3 mm 2 m/S 750 mmHg 70%
16:00 +32°C° 0.3 mm 2 m/S 750 mmHg 74%
17:00 +31°C° 1.3 mm 2 m/S 750 mmHg 80%
18:00 +29°C° 1.3 mm 2 m/S 751 mmHg 87%
19:00 +28°C° 1.3 mm 2 m/S 751 mmHg 93%
20:00 +27°C° 0.4 mm 2 m/S 752 mmHg 94%
21:00 +27°C° 0.4 mm 2 m/S 752 mmHg 95%
22:00 +26°C° 0.4 mm 2 m/S 753 mmHg 95%
23:00 +26°C° 1.8 mm 2 m/S 753 mmHg 96%

16 Juli, Donnerstag

Zeit Temperatur Niederschläge Wind Luftdruck Luftfeuchtigkeit
00:00 +26°C° 1.8 mm 2 m/S 753 mmHg 96%
01:00 +25°C° 1.8 mm 2 m/S 753 mmHg 97%
02:00 +25°C° 1.4 mm 2 m/S 753 mmHg 97%
03:00 +25°C° 1.4 mm 2 m/S 753 mmHg 97%
04:00 +25°C° 1.4 mm 2 m/S 753 mmHg 98%
05:00 +25°C° 0.3 mm 1 m/S 753 mmHg 98%
06:00 +25°C° 0.3 mm 1 m/S 753 mmHg 97%
07:00 +23°C° 0.3 mm 0 m/S 754 mmHg 97%
08:00 +26°C° 0 mm 1 m/S 754 mmHg 94%
09:00 +27°C° 0 mm 1 m/S 754 mmHg 90%
10:00 +28°C° 0 mm 1 m/S 754 mmHg 87%
11:00 +29°C° 0 mm 1 m/S 753 mmHg 80%
12:00 +31°C° 0 mm 1 m/S 753 mmHg 73%
13:00 +32°C° 0 mm 2 m/S 752 mmHg 66%
14:00 +32°C° 0.1 mm 2 m/S 752 mmHg 69%
15:00 +31°C° 0.1 mm 2 m/S 751 mmHg 72%
16:00 +31°C° 0.1 mm 2 m/S 751 mmHg 75%
17:00 +30°C° 0.8 mm 2 m/S 751 mmHg 81%
18:00 +29°C° 0.8 mm 2 m/S 751 mmHg 87%
19:00 +27°C° 0.8 mm 2 m/S 752 mmHg 92%
20:00 +27°C° 0.3 mm 2 m/S 752 mmHg 93%
21:00 +26°C° 0.3 mm 2 m/S 753 mmHg 93%
22:00 +26°C° 0.3 mm 2 m/S 754 mmHg 94%
23:00 +26°C° 0.2 mm 1 m/S 753 mmHg 94%

17 Juli, Freitag

Zeit Temperatur Niederschläge Wind Luftdruck Luftfeuchtigkeit
00:00 +25°C° 0.2 mm 1 m/S 753 mmHg 95%
01:00 +23°C° 0.2 mm 0 m/S 753 mmHg 95%
02:00 +25°C° 1.1 mm 1 m/S 753 mmHg 96%
03:00 +25°C° 1.1 mm 1 m/S 753 mmHg 97%
04:00 +25°C° 1.1 mm 1 m/S 753 mmHg 98%
05:00 +25°C° 2 mm 1 m/S 754 mmHg 98%
06:00 +25°C° 2 mm 1 m/S 754 mmHg 98%
07:00 +25°C° 2 mm 1 m/S 754 mmHg 99%
08:00 +25°C° 0.5 mm 1 m/S 755 mmHg 97%
09:00 +26°C° 0.5 mm 1 m/S 755 mmHg 95%
10:00 +27°C° 0.5 mm 1 m/S 755 mmHg 93%
11:00 +28°C° 0 mm 1 m/S 754 mmHg 85%
12:00 +30°C° 0 mm 1 m/S 753 mmHg 77%
13:00 +31°C° 0 mm 1 m/S 752 mmHg 69%
14:00 +31°C° 0 mm 2 m/S 752 mmHg 72%
15:00 +31°C° 0 mm 2 m/S 751 mmHg 74%
16:00 +30°C° 0 mm 3 m/S 751 mmHg 76%
17:00 +29°C° 0.1 mm 2 m/S 751 mmHg 81%
18:00 +28°C° 0.1 mm 2 m/S 752 mmHg 85%
19:00 +27°C° 0.1 mm 1 m/S 752 mmHg 90%
20:00 +26°C° 0.1 mm 1 m/S 753 mmHg 91%
21:00 +26°C° 0.1 mm 1 m/S 753 mmHg 92%
22:00 +24°C° 0.1 mm 0 m/S 754 mmHg 93%
23:00 +26°C° 0.3 mm 1 m/S 754 mmHg 93%

18 Juli, Samstag

Zeit Temperatur Niederschläge Wind Luftdruck Luftfeuchtigkeit
00:00 +25°C° 0.3 mm 1 m/S 754 mmHg 94%
01:00 +25°C° 0.3 mm 1 m/S 753 mmHg 95%
02:00 +25°C° 0.6 mm 1 m/S 753 mmHg 96%
03:00 +25°C° 0.6 mm 1 m/S 753 mmHg 96%
04:00 +25°C° 0.6 mm 1 m/S 753 mmHg 97%
05:00 +25°C° 0.2 mm 1 m/S 753 mmHg 97%
06:00 +25°C° 0.2 mm 1 m/S 754 mmHg 97%
07:00 +25°C° 0.2 mm 1 m/S 754 mmHg 97%
08:00 +26°C° 0 mm 1 m/S 754 mmHg 90%
09:00 +28°C° 0 mm 1 m/S 754 mmHg 84%
10:00 +30°C° 0 mm 2 m/S 754 mmHg 77%
11:00 +31°C° 0 mm 1 m/S 753 mmHg 70%
12:00 +33°C° 0 mm 1 m/S 752 mmHg 62%
13:00 +35°C° 0 mm 1 m/S 751 mmHg 55%
14:00 +34°C° 0 mm 1 m/S 751 mmHg 59%
15:00 +34°C° 0 mm 2 m/S 750 mmHg 64%
16:00 +34°C° 0 mm 3 m/S 750 mmHg 69%
17:00 +31°C° 0.6 mm 3 m/S 750 mmHg 76%
18:00 +30°C° 0.6 mm 2 m/S 751 mmHg 83%
19:00 +28°C° 0.6 mm 2 m/S 751 mmHg 91%
20:00 +27°C° 4.8 mm 2 m/S 752 mmHg 93%
21:00 +27°C° 4.8 mm 1 m/S 752 mmHg 95%
22:00 +26°C° 4.8 mm 1 m/S 753 mmHg 97%
23:00 +26°C° 2.1 mm 1 m/S 753 mmHg 98%
Mehr zeigen